CAPE
0 0 0 0 0 0 0 0 0 0 0 0 0 0 0 0 0 0 0 0 0 0 0 0 0 0 0 0 156 1177 1662 1441 1050 930 1783 2082 1920 1991 2088 2241 2330 2716 2599 2238 2350 2286 2186 1974 1793 1510 1553 1592 1569 1468 1331 1381 1052 891 1131 1133 1300 1448 1422 1241 872 768 645 674 961 1068 1023 1019 882 833 707 671 704 722 693 864 730 880 798 879 916 842
0 0 0 0 0 0 0 0 0 0 0 0 0 0 0 0 0 0 0 0 0 0 0 0 0 0 0 0 38 1029 1483 1196 1150 1493 1781 1750 1734 1992 2241 2167 2337 2706 2125 2522 2137 1998 2024 1962 1858 1604 1671 1743 1748 1691 1295 1379 1186 1145 1059 1405 1333 1361 1314 1111 997 1012 802 888 972 1085 1052 931 648 598 659 688 586 623 525 537 479 529 553 521 772 769
0 0 0 0 0 0 0 0 0 0 0 0 0 0 0 0 0 0 0 0 0 0 0 0 0 0 0 0 13 910 1160 1073 1090 1359 1602 1554 1840 2087 2132 2162 2406 2360 2114 2181 1997 1605 1606 1901 1917 1691 1740 1842 1821 1728 1459 1208 1190 1176 1377 1493 1109 1218 1141 1298 1021 988 1199 1160 1032 944 800 698 499 521 511 506 387 427 464 549 400 458 371 311 406 364
0 0 0 0 0 0 0 0 0 0 0 0 0 0 0 0 0 0 0 0 0 0 0 0 0 0 0 0 0 698 990 844 1082 1336 1475 1624 1739 1934 1995 2074 2358 2135 1878 1995 1848 1724 1691 1669 1965 1696 1852 1918 1837 1688 1356 1264 1068 1340 1452 1096 1344 1609 649 791 743 917 1000 1108 953 796 744 522 392 541 509 417 351 256 429 410 300 260 249 152 168 205
0 0 0 0 0 0 0 0 0 0 0 0 0 0 0 0 0 0 0 0 0 0 0 0 0 0 0 0 35 496 617 536 1208 1515 1689 1832 1892 1850 1932 2050 2158 2166 1971 2012 2004 1834 1748 1610 1557 1765 1948 1957 1842 1571 1318 953 1087 1009 913 714 854 1491 816 560 822 885 944 712 680 608 564 521 561 476 399 404 444 350 209 277 245 209 146 39 60 275
0 0 0 0 0 0 0 0 0 0 0 0 0 0 0 0 0 0 0 0 0 0 0 0 0 0 0 0 0 255 742 618 995 1279 1450 1504 1458 1639 1884 1942 1942 1912 1711 2027 2032 1944 1782 1791 1741 1628 1781 1816 1673 1477 1297 1219 1025 900 733 604 873 981 732 656 752 900 617 617 622 633 608 506 405 374 311 437 387 276 173 150 9 78 0 109 290 229
0 0 0 0 0 0 0 0 0 0 0 0 0 0 0 0 0 0 0 0 0 0 0 0 0 0 0 0 0 0 493 631 919 955 1143 1269 1533 1568 1780 2057 2080 2037 2040 1910 2032 2037 1966 1869 1924 1808 1619 1613 1635 1674 1674 1614 1450 1145 930 719 673 887 1018 546 762 830 653 552 601 616 594 447 197 322 18 258 253 239 125 10 0 2 84 229 176 43
1 1 0 0 0 0 0 0 0 0 0 0 0 0 0 0 0 0 0 0 0 0 0 0 0 0 0 0 0 0 386 573 595 746 1005 1293 1557 1587 1743 2035 2237 2305 1994 2123 1860 1927 1974 1902 1928 1922 1562 1630 1735 1820 1840 1825 1433 1105 1004 880 603 638 661 772 850 841 955 804 566 712 637 534 484 371 506 328 327 211 20 0 0 52 227 131 0 1
2 1 0 0 0 0 0 0 0 0 0 0 0 0 0 0 0 0 0 0 0 0 0 0 0 0 0 0 11 0 298 222 210 596 906 1291 1430 1589 1748 1960 2152 2337 2215 2103 2032 1857 1789 1808 1862 1816 1658 1826 1896 1951 1924 1666 1485 1039 1040 1025 923 747 776 996 993 974 1039 924 732 808 691 708 552 498 440 348 362 74 9 0 25 212 0 0 16 4
0 1 0 0 0 0 0 0 0 0 0 0 0 0 0 0 0 0 0 0 0 0 0 0 0 0 0 0 3 5 13 16 57 439 910 1244 1374 1515 1741 1834 2004 2186 2142 1992 1933 1906 1840 1838 1927 1675 1698 1818 1978 1916 1788 1434 1267 1289 1169 1039 917 718 849 910 1010 1070 942 1002 838 896 904 586 579 529 495 438 338 44 0 247 228 130 2 3 3 2
1 2 0 0 0 0 0 0 0 0 0 0 0 0 0 0 0 0 0 0 0 0 0 0 0 0 0 0 0 136 2 0 12 372 815 1209 1323 1450 1664 1931 1952 1941 2005 1985 1832 1986 1904 1816 2006 1505 1646 1784 1879 1791 1517 1206 1236 1338 1181 1090 973 1014 929 999 1248 1079 958 1024 1065 713 597 597 653 499 453 335 256 191 244 266 134 14 1 1 54 2
0 0 0 0 0 0 0 0 0 0 0 0 0 0 0 0 0 0 0 0 0 0 0 0 0 0 0 0 0 18 140 1 28 298 571 1012 1235 1412 1569 1757 1855 1772 1864 1927 1732 1847 1861 1836 1730 1498 1643 1726 1704 1659 1428 1097 1039 1302 1182 1164 1189 950 1088 1118 1146 989 837 861 535 650 652 667 602 503 410 281 265 214 19 34 0 28 0 2 120 0
5 1 0 0 0 0 0 0 0 0 0 0 0 0 0 0 0 0 0 0 0 0 0 0 0 0 0 0 0 0 9 5 59 190 359 586 992 1418 1444 1731 1775 1767 1635 1862 1744 1719 1727 1846 1684 1596 1552 1552 1614 1466 1336 1074 1082 1289 1220 1169 1307 1444 956 1150 952 959 744 668 594 648 539 667 514 470 415 311 89 0 0 71 54 0 163 162 170 168
24 3 0 0 0 0 0 0 0 0 0 0 0 0 0 0 0 0 0 0 0 0 0 0 0 0 0 0 0 0 160 73 14 51 89 97 450 1230 1442 1621 1718 1785 1748 1914 1784 1694 1742 1646 1659 1645 1553 1460 1494 1338 1234 1061 1036 1321 1237 1177 1015 1012 1015 911 966 865 798 621 606 546 557 618 580 435 342 325 255 171 25 37 11 103 186 180 169 184
43 10 2 0 0 0 0 0 0 0 0 0 0 0 0 0 0 0 0 0 0 0 0 0 0 0 0 0 0 0 101 5 0 0 5 6 86 944 1381 1473 1563 1560 1740 1864 1787 1690 1771 1923 1829 1598 1478 1451 1401 1274 1153 1100 1034 1281 1189 1228 1050 1052 939 969 1025 951 600 624 642 564 584 559 544 415 311 311 180 0 56 60 29 148 165 194 182 0
9 1 0 0 0 0 0 0 0 0 0 0 0 0 0 0 0 0 0 0 0 0 0 0 0 0 0 0 36 2 2 0 0 0 0 316 966 1085 1359 1562 1487 1498 1556 1899 1800 1594 1715 1888 1793 1641 1528 1475 1329 1202 1128 1099 1020 1220 1041 1204 1238 1099 866 655 581 513 531 620 665 594 571 502 444 388 356 229 101 32 36 62 94 189 188 163 133 17
2 38 1 0 0 0 0 0 0 0 0 0 0 0 0 0 0 0 0 0 0 0 0 0 0 0 0 0 0 0 0 0 0 105 320 746 1029 1429 1493 1492 1605 1684 1846 1967 1828 1693 1572 1696 1875 1711 1525 1372 1344 1209 1157 1056 1043 1194 1027 922 1091 1047 1209 527 662 783 444 553 702 551 595 507 419 410 292 148 84 94 113 180 250 205 183 28 0 0
4 30 0 0 0 0 0 0 0 0 0 0 0 0 0 0 0 0 0 0 0 0 0 0 0 0 0 0 2 12 0 0 0 2 70 592 935 1263 1577 1687 1758 1904 2064 1983 1803 1768 1579 1614 1800 1760 1530 1384 1412 1268 1175 1072 1040 1200 1067 910 861 922 878 672 672 660 572 595 647 588 506 466 472 397 240 44 106 158 154 210 205 171 27 0 0 0
12 33 2 0 0 0 0 0 0 0 0 0 0 0 0 0 0 0 0 0 0 0 0 0 0 0 0 0 0 3 0 0 0 0 16 323 752 1023 1321 1509 1594 1957 2108 1940 1788 1772 1543 1678 1804 1717 1405 1484 1396 1360 1240 1120 1010 1188 1073 939 837 886 875 705 696 590 511 622 654 638 545 496 428 369 145 0 114 211 172 220 203 27 0 0 0 0
0 31 6 0 0 0 0 0 0 0 0 0 0 0 0 0 0 0 0 0 0 0 0 0 0 0 0 0 0 0 0 0 0 0 0 22 613 1012 1162 1275 1571 2039 2004 1961 1785 1667 1542 1658 1645 1672 1755 1655 1346 1425 1269 1098 1032 1111 1059 956 890 885 846 715 702 624 595 653 670 654 594 491 414 300 172 172 220 189 193 260 225 15 0 0 0 0
0 23 25 0 0 0 0 0 0 0 0 0 0 0 0 0 0 0 0 0 0 0 0 0 0 0 0 0 0 0 0 0 0 0 0 27 373 936 1153 1376 1996 2008 1933 1848 1771 1551 1460 1588 1672 1714 1704 1430 1416 1377 1279 1106 943 1008 1057 976 961 904 911 713 678 582 634 665 716 647 595 503 381 226 188 242 288 256 287 295 247 8 0 0 0 0
0 0 8 4 0 0 0 0 0 0 0 0 0 0 0 0 0 0 0 0 0 0 0 0 0 0 0 0 0 0 0 0 0 0 2 134 391 892 1205 1780 2306 2034 1991 1838 1496 1352 1453 1563 1704 1591 1813 1407 1455 1467 1318 1161 922 833 1047 1039 993 928 956 681 674 669 649 699 664 608 563 540 255 201 252 332 352 315 338 350 314 189 0 0 0 0
2 1 26 0 0 0 0 0 0 0 0 0 0 0 0 0 0 0 0 0 0 0 0 0 0 0 7 0 0 0 0 0 0 0 14 168 384 954 1743 2144 2196 2170 2071 1728 1451 1357 1453 1557 1614 1662 1648 1706 1450 1434 1366 1184 938 852 986 1027 984 951 998 802 820 683 657 653 562 608 629 534 272 261 392 339 379 383 376 368 350 277 169 113 94 0
0 0 5 8 0 2 0 0 0 0 0 0 0 0 0 0 0 0 0 0 0 0 0 0 0 0 6 704 805 950 925 620 1089 1318 2186 2275 2418 2268 2215 2286 2292 2168 1862 1529 1351 1395 1532 1483 1587 1454 1513 1495 1420 1256 1346 1175 924 767 788 916 887 874 996 912 834 717 671 623 525 685 719 680 303 364 388 353 445 445 415 347 368 311 212 183 143 128
0 0 4 6 3 3 0 0 0 0 0 0 0 0 0 0 0 0 0 0 0 0 0 0 0 0 959 155 26 271 231 135 153 435 565 1219 2000 2078 2193 2304 2158 1918 1632 1371 1365 1364 1435 1411 1574 1366 1272 1239 1153 1158 1314 1172 944 780 702 927 805 751 931 987 896 735 587 621 678 797 775 511 346 455 421 475 448 458 429 397 370 325 248 254 252 160
8 17 14 5 1 2 0 0 0 0 0 0 0 0 0 0 0 0 0 0 0 0 0 0 0 0 268 615 146 300 87 127 98 545 1321 1172 1860 1909 2072 2109 2043 1759 1490 1346 1429 1462 1424 1406 1498 1198 1188 1170 1193 1240 1296 1130 912 785 721 726 684 672 806 1003 897 775 578 561 728 772 651 371 383 407 439 424 494 453 434 407 384 347 321 301 313 246
0 5 6 14 6 0 0 0 0 0 0 0 0 0 0 0 0 0 0 0 0 0 0 0 0 0 0 12 0 20 468 98 1096 1121 1257 1565 1987 2025 2094 2047 1818 1571 1392 1248 1323 1440 1499 1442 1453 1142 1187 1170 1210 1281 1260 1088 869 799 804 748 669 805 768 988 963 786 596 634 768 617 370 360 454 426 417 470 502 458 442 415 390 381 414 370 354 276
0 0 9 1 0 12 15 0 0 0 0 0 0 0 0 0 0 0 0 0 0 0 0 0 0 0 0 0 0 0 411 343 845 1082 1093 1687 2092 2064 2070 1902 1480 1448 1292 1365 1471 1502 1555 1573 1518 1145 1145 1120 1166 1207 1161 1028 910 852 816 594 461 520 701 922 972 794 689 785 645 360 301 420 426 375 395 448 472 441 434 428 406 433 427 427 421 342
0 0 0 0 0 0 0 0 0 0 0 0 0 0 0 0 0 0 0 0 0 0 0 0 0 0 0 0 0 14 399 489 309 836 1028 1532 1918 1956 1861 1666 1441 1330 1394 1406 1492 1557 1330 1436 1212 1051 1089 1043 1022 1076 1115 1146 970 903 825 588 537 581 717 862 927 696 745 817 499 336 339 403 351 320 353 403 460 450 452 450 452 468 466 473 449 339
0 0 5 2 2 0 0 0 0 0 0 0 0 0 0 0 0 0 0 0 0 0 0 0 0 0 0 0 1 686 608 307 469 917 1401 1616 1766 1821 1619 1505 1369 1362 1426 1493 1431 1572 1513 1429 1273 1036 1188 1065 946 1092 1210 1191 1016 946 900 809 775 674 730 825 915 640 546 560 402 319 326 339 384 402 379 403 468 479 449 477 505 516 495 476 450 353
0 16 0 7 0 0 0 0 0 0 0 0 0 0 0 0 0 0 0 0 0 0 0 0 0 0 0 0 0 886 642 209 746 859 1316 1531 1636 1755 1619 1462 1419 1345 1446 1376 1353 1339 1486 1338 1339 1234 969 888 841 983 1131 836 946 1058 1058 1006 885 765 660 730 777 511 470 425 401 330 315 374 377 388 405 390 434 450 492 500 465 512 507 469 459 384
0 75 3 4 0 0 2 0 54 4 0 0 0 0 0 0 0 0 0 0 0 0 0 0 0 0 0 0 2 318 545 223 505 1127 1477 1742 1834 1857 1749 1621 1511 1463 1533 1389 1459 1288 1219 1290 1140 1286 1079 936 1002 898 855 894 1036 1100 1088 1017 821 793 680 596 560 391 344 342 357 311 292 317 340 354 355 336 381 424 440 466 460 497 512 423 426 338
1 4 2 0 2 2 48 4 38 3 0 0 0 0 0 0 0 0 0 0 0 0 0 0 0 0 0 0 1 11 406 216 511 979 1638 1900 1959 1874 1863 1790 1676 1596 1338 1426 1480 1481 1412 1123 1118 870 954 1092 788 921 1081 1172 1069 1048 912 768 639 635 567 582 607 407 305 368 324 306 293 309 292 280 270 258 287 372 390 444 448 521 430 364 347 284
1 0 0 0 0 0 5 17 22 6 0 0 0 0 0 0 0 0 0 0 0 0 0 0 0 0 0 0 4 11 50 554 919 1466 1691 1907 2010 1948 1857 1821 1853 1716 1618 1530 1449 1442 1327 1363 1195 1029 796 762 664 645 728 811 827 764 722 770 725 611 506 460 514 437 331 349 405 333 300 302 279 281 263 248 258 379 386 421 433 433 347 262 220 198
0 0 0 0 0 0 4 5 0 0 0 436 19 74 0 0 0 0 0 0 0 0 0 0 0 0 0 0 2 6 513 1470 1474 1609 1834 1764 1837 1872 1856 1801 1932 1849 1787 1589 1434 1425 1530 1120 982 856 795 678 804 770 715 743 768 836 955 941 810 703 647 587 638 582 421 315 336 226 277 288 300 294 276 102 102 315 390 405 429 382 302 117 0 141
0 0 0 0 12 12 26 0 0 0 277 278 224 7 18 0 0 0 0 0 0 0 0 0 0 0 0 0 0 206 422 1040 1170 1207 1643 1825 1900 1986 1983 1950 2078 2077 1944 1803 1506 1360 1340 1351 1148 924 925 948 896 968 791 762 746 1034 1080 878 872 736 645 729 760 683 516 421 358 322 288 253 263 269 257 75 187 322 378 384 379 187 190 183 177 183
4 26 6 3 0 1 6 0 0 144 249 384 418 18 0 0 0 0 0 0 0 0 0 0 0 0 0 16 350 526 871 877 1037 1290 1474 1758 1882 1922 2007 2006 2161 2178 2062 1794 1691 1361 1466 1405 1248 1170 894 939 993 1021 801 717 668 599 750 734 626 683 736 723 675 594 532 506 492 450 423 373 359 286 181 189 230 354 380 356 344 301 243 214 229 208
88 0 1 3 5 8 3 47 31 4 0 81 232 183 22 153 115 0 0 0 0 0 0 0 0 0 0 396 484 797 1131 654 415 375 1982 1813 1827 1934 1897 2024 2187 2198 2026 1760 1684 1606 1354 1328 1244 951 1114 836 815 743 673 657 537 554 590 597 644 619 574 559 572 559 472 493 440 520 508 568 508 457 435 368 282 266 310 327 292 288 252 226 210 174
0 1 4 10 13 18 6 43 32 23 56 186 273 233 200 166 123 20 0 0 0 0 0 0 0 0 6 706 852 952 727 264 218 608 2244 2112 1937 1936 2036 2120 2213 2108 1898 1629 1659 1649 1404 1429 1307 872 855 775 801 769 754 676 614 552 581 648 699 749 751 688 597 412 284 311 380 442 474 438 378 402 469 488 466 412 381 376 368 314 254 221 159 151
4 7 0 11 15 14 2 2 13 0 11 106 306 421 92 341 230 80 0 0 887 440 225 28 3 0 25 740 968 784 329 144 191 1646 1601 2031 2021 2134 2028 1770 1982 2083 1919 1801 1709 1653 1362 1330 1226 878 984 738 757 831 806 740 696 620 621 714 769 740 702 611 471 326 371 385 424 502 458 436 370 346 261 268 298 211 193 125 196 188 152 59 112 237
1 2 1 8 12 11 6 12 9 2 6 184 370 131 13 192 162 0 0 246 295 803 498 273 195 124 441 782 704 402 868 1426 1623 1598 1233 1810 2068 1958 2050 2155 2212 2035 1943 1830 1560 1352 1493 1353 1086 986 1018 822 822 893 824 732 686 702 660 661 631 586 462 353 356 362 366 344 293 241 244 253 260 353 384 379 258 275 98 84 131 139 0 0 98 188
8 0 2 0 5 31 65 97 41 13 9 186 554 37 26 54 7 8 745 724 866 937 1276 755 714 560 605 673 832 732 1670 1329 1936 1776 1417 1801 1848 1857 2201 2328 2229 2095 2037 1689 1555 1377 1578 1272 1026 1005 926 973 844 829 850 717 599 553 608 486 485 405 323 343 365 350 312 0 0 75 62 9 1 357 424 400 286 119 241 135 57 15 0 13 118 119
13 1 13 9 2 0 5 27 37 34 179 617 669 317 62 163 542 772 1086 1542 1323 1441 1396 1514 1040 879 657 769 928 1536 1196 1108 1849 1997 1726 2064 2144 2180 2163 2204 2287 2278 2137 1935 1655 1328 1265 1405 1071 1081 1006 880 819 896 835 722 616 564 558 471 565 451 497 515 475 435 427 502 380 343 140 0 122 331 321 288 273 166 114 184 129 58 0 20 118 94
94 11 22 4 1 63 39 20 12 50 416 912 765 101 407 1361 1120 1167 1361 1259 1561 1424 1342 1550 1378 986 514 571 1139 1583 1335 1140 1743 1940 2320 2164 2151 2141 2176 2160 2302 2346 2239 1962 1658 1569 1379 1244 1176 1019 886 750 598 762 820 756 607 589 582 562 609 579 543 548 524 526 498 426 415 378 54 97 173 293 297 111 98 168 114 0 0 0 0 0 14 15
3 1 291 528 31 25 6 72 385 681 912 876 863 1114 1253 1064 1019 1042 1333 1554 1495 1338 1506 1246 1162 970 480 608 1135 1360 1171 1280 1666 1994 2143 2199 2322 2223 2080 2003 2034 2052 2100 2089 1799 1421 1350 1383 1197 1142 826 712 616 684 750 675 641 580 575 544 549 535 512 545 552 594 567 519 438 101 18 101 142 231 250 61 0 63 0 0 0 0 0 4 25 10
94 89 458 269 27 267 164 59 234 150 973 1095 857 901 984 1270 1082 1111 1486 1363 1392 1392 1312 1308 1120 816 766 950 1093 1007 1168 1311 1377 1434 1782 2011 2102 1900 1686 1681 1932 2119 1962 1845 1769 1307 1308 1334 1131 946 914 724 690 657 721 724 625 613 512 497 513 528 517 573 570 567 492 435 166 0 89 71 10 0 0 0 0 0 0 0 0 73 95 40 14 0
424 184 43 22 379 0 170 874 625 563 1402 1129 1128 1050 1042 1150 1130 1371 1310 1472 1451 1478 1362 1268 1274 1000 816 859 1001 1042 1063 1258 1362 1408 1587 2035 2034 2005 1991 1993 2035 2015 2051 1662 1580 1324 1354 1326 1180 984 848 718 764 789 736 743 634 553 557 542 514 520 573 632 531 451 346 240 106 115 191 151 14 76 146 0 2 0 0 0 0 60 30 0 0 0
504 233 161 205 400 140 226 1010 1085 1155 1266 1156 1238 1417 1420 1238 1171 1171 1557 1558 1492 1451 1423 1534 1546 1385 1407 1294 1329 1178 943 1132 1378 1374 1426 1738 2083 2090 2066 2080 2027 1828 1778 1608 1598 1368 1426 1400 1321 1059 716 840 756 819 852 776 636 595 566 553 500 476 554 627 488 397 274 240 16 151 188 223 257 203 102 99 20 0 0 0 0 0 0 0 14 21
376 129 100 259 188 156 397 583 937 1108 1286 1110 964 1058 1135 1105 1067 1339 1583 1528 1450 1433 1392 1250 1305 1253 1236 1428 1626 1310 1128 1001 1312 1356 1429 1608 1791 1855 1948 2132 1988 1672 1605 1477 1578 1251 1562 1340 1224 1049 746 798 825 788 850 782 672 580 544 487 460 420 482 577 542 390 321 233 147 5 102 235 262 174 91 51 71 14 0 0 0 0 6 57 112 85
455 614 458 319 230 163 116 476 1160 976 658 1133 1136 1208 1098 1042 1139 1396 1456 875 1282 1359 1447 1426 1233 1080 1066 1243 1426 1253 1241 1172 1245 1417 1248 1408 1635 1868 2005 1936 1797 1703 1601 1514 1435 1376 1362 1273 1340 1024 844 922 991 905 864 793 723 648 534 490 455 443 449 473 487 318 287 122 8 0 0 65 164 160 163 118 38 32 0 0 0 3 6 34 38 41
541 967 564 85 104 131 904 794 1336 1328 1038 1222 1111 1238 1306 1373 1440 1322 1228 1246 1106 1092 1122 1206 1227 1164 968 938 1131 1216 1224 1304 1342 1403 1410 1450 1572 1603 1697 1645 1523 1429 1254 1317 1208 1187 1292 1350 1028 998 1043 999 1046 1073 953 958 957 855 630 460 423 421 429 418 347 222 130 1 3 0 0 0 0 0 15 10 19 0 4 0 0 0 4 5 6 2
Wind_Speed
nan nan nan nan nan nan nan nan nan nan nan nan nan nan nan nan nan nan nan nan nan nan nan nan nan nan nan nan 47 44 44 39 37 36 36 34 33 33 33 32 32 33 35 39 36 31 30 30 29 24 22 24 24 25 25 25 26 27 28 30 29 26 21 17 19 19 20 22 22 21 19 20 21 22 23 25 24 24 24 25 26 26 25 27 25 24
nan nan nan nan nan nan nan nan nan nan nan nan nan nan nan nan nan nan nan nan nan nan nan nan nan nan nan nan nan 42 41 37 35 34 32 31 32 33 31 30 31 33 38 40 33 30 28 27 26 21 19 22 22 23 23 24 26 26 27 28 31 26 19 18 18 21 21 21 21 21 21 23 25 25 23 26 26 26 26 27 28 28 28 27 23 23
nan nan nan nan nan nan nan nan nan nan nan nan nan nan nan nan nan nan nan nan nan nan nan nan nan nan nan nan nan 34 34 33 31 30 29 29 31 31 29 28 31 33 33 31 28 26 24 21 19 17 16 19 20 21 22 24 24 24 25 30 33 25 22 21 21 22 23 23 23 23 25 25 27 26 26 29 28 25 26 26 29 29 28 26 24 24
nan nan nan nan nan nan nan nan nan nan nan nan nan nan nan nan nan nan nan nan nan nan nan nan nan nan nan nan nan 30 30 31 29 27 27 28 27 25 25 29 31 30 28 25 24 22 21 16 15 13 16 18 20 21 21 23 22 21 26 30 30 26 24 23 24 24 24 26 27 26 27 27 25 28 28 28 26 27 29 30 31 29 26 24 24 24
nan nan nan nan nan nan nan nan nan nan nan nan nan nan nan nan nan nan nan nan nan nan nan nan nan nan nan nan nan 32 31 29 29 27 26 25 23 23 26 28 27 25 22 20 20 18 15 13 10 11 15 18 18 20 22 22 19 21 27 31 29 25 25 24 25 24 26 32 33 30 30 29 30 31 30 26 26 27 30 29 27 24 23 nan nan 22
nan nan nan nan nan nan nan nan nan nan nan nan nan nan nan nan nan nan nan nan nan nan nan nan nan nan nan nan nan 35 33 27 28 24 22 20 19 21 23 22 22 18 17 14 13 13 11 10 9 11 14 15 18 18 20 16 21 24 26 29 28 24 25 23 24 25 30 30 30 28 26 26 25 26 27 26 26 25 24 23 nan nan nan 21 20 20
nan nan nan nan nan nan nan nan nan nan nan nan nan nan nan nan nan nan nan nan nan nan nan nan nan nan nan nan nan nan 30 26 28 23 21 20 20 20 20 19 17 14 13 11 10 11 10 8 8 11 14 15 17 17 19 18 21 22 25 27 29 24 22 22 22 26 28 27 26 25 26 27 26 24 nan 25 26 25 23 nan nan nan nan 19 19 nan
nan nan nan nan nan nan nan nan nan nan nan nan nan nan nan nan nan nan nan nan nan nan nan nan nan nan nan nan nan nan 30 25 25 24 21 22 20 18 16 14 13 13 11 10 7 8 8 8 8 11 16 16 16 18 20 19 19 22 24 28 26 21 22 22 23 26 22 23 22 23 24 24 26 24 26 25 25 27 nan nan nan nan 18 18 nan nan
nan nan nan nan nan nan nan nan nan nan nan nan nan nan nan nan nan nan nan nan nan nan nan nan nan nan nan nan nan nan 29 24 23 24 23 21 17 13 10 11 12 13 11 9 8 5 6 7 9 15 15 17 18 19 19 19 20 27 22 28 23 24 21 22 24 23 21 20 21 21 22 24 25 26 27 25 24 nan nan nan nan 17 nan nan nan nan
nan nan nan nan nan nan nan nan nan nan nan nan nan nan nan nan nan nan nan nan nan nan nan nan nan nan nan nan nan nan nan nan nan 25 26 20 14 10 10 11 13 13 11 7 6 6 6 8 10 15 15 18 19 19 20 19 20 24 24 24 26 27 23 23 24 23 23 22 22 21 22 25 25 26 26 23 22 nan nan 19 17 16 nan nan nan nan
nan nan nan nan nan nan nan nan nan nan nan nan nan nan nan nan nan nan nan nan nan nan nan nan nan nan nan nan nan 30 nan nan nan 31 26 18 14 11 12 13 14 13 11 8 7 8 7 8 13 17 17 19 21 20 20 19 20 23 23 24 27 30 26 26 26 25 24 22 20 21 21 23 25 24 22 21 21 21 19 18 17 nan nan nan nan nan
nan nan nan nan nan nan nan nan nan nan nan nan nan nan nan nan nan nan nan nan nan nan nan nan nan nan nan nan nan nan 29 nan nan 25 21 18 15 13 12 14 14 12 11 9 8 10 8 8 12 17 19 21 22 23 22 21 22 23 22 23 26 29 30 30 29 26 24 21 21 20 20 22 22 21 19 21 21 19 nan nan nan nan nan nan 18 nan
nan nan nan nan nan nan nan nan nan nan nan nan nan nan nan nan nan nan nan nan nan nan nan nan nan nan nan nan nan nan nan nan nan 23 20 17 15 13 13 14 15 14 12 11 11 10 9 8 13 18 21 24 24 24 25 23 23 24 23 24 25 29 31 31 31 27 24 21 20 21 20 20 20 18 19 20 nan nan nan nan nan nan 18 19 19 19
nan nan nan nan nan nan nan nan nan nan nan nan nan nan nan nan nan nan nan nan nan nan nan nan nan nan nan nan nan nan 31 nan nan nan nan nan 18 17 15 16 17 16 14 14 12 11 10 11 16 20 23 25 25 27 28 26 24 24 24 24 26 29 31 30 29 26 24 22 20 22 21 20 19 19 18 19 20 19 nan nan nan 18 19 19 20 20
nan nan nan nan nan nan nan nan nan nan nan nan nan nan nan nan nan nan nan nan nan nan nan nan nan nan nan nan nan nan 29 nan nan nan nan nan nan 23 21 21 19 19 17 16 14 13 13 13 16 20 22 24 25 28 30 26 24 25 26 26 26 31 28 26 27 27 25 21 21 22 23 22 19 19 19 19 20 nan nan nan nan 19 19 19 20 nan
nan nan nan nan nan nan nan nan nan nan nan nan nan nan nan nan nan nan nan nan nan nan nan nan nan nan nan nan nan nan nan nan nan nan nan 30 31 28 26 24 23 22 19 17 15 14 14 15 16 18 21 24 25 28 29 27 25 26 27 27 27 27 25 25 27 27 25 23 22 23 25 23 21 20 20 20 21 nan nan nan nan 20 20 20 21 nan
nan nan nan nan nan nan nan nan nan nan nan nan nan nan nan nan nan nan nan nan nan nan nan nan nan nan nan nan nan nan nan nan nan 30 29 29 28 29 28 25 23 23 20 18 18 18 15 14 15 18 21 23 24 26 27 26 26 27 29 29 27 24 25 25 25 27 28 25 25 24 24 23 23 22 21 21 nan nan 21 20 20 19 20 nan nan nan
nan nan nan nan nan nan nan nan nan nan nan nan nan nan nan nan nan nan nan nan nan nan nan nan nan nan nan nan nan nan nan nan nan nan nan 27 27 26 26 25 24 22 20 20 19 19 16 13 16 18 21 23 24 24 27 27 27 28 28 28 28 24 23 25 25 27 26 26 24 23 23 23 22 21 22 nan 23 23 21 20 20 20 nan nan nan nan
nan nan nan nan nan nan nan nan nan nan nan nan nan nan nan nan nan nan nan nan nan nan nan nan nan nan nan nan nan nan nan nan nan nan nan 25 24 23 24 24 24 23 23 23 21 19 15 14 17 21 22 24 26 26 27 29 30 30 29 29 29 26 21 24 25 26 25 24 22 20 21 22 21 21 22 nan 22 22 20 20 19 nan nan nan nan nan
nan nan nan nan nan nan nan nan nan nan nan nan nan nan nan nan nan nan nan nan nan nan nan nan nan nan nan nan nan nan nan nan nan nan nan nan 21 22 24 25 25 24 24 23 21 17 14 15 18 21 23 26 27 29 29 31 31 33 31 30 27 24 20 23 26 26 25 23 21 22 22 21 22 22 22 22 23 20 19 20 20 nan nan nan nan nan
nan nan nan nan nan nan nan nan nan nan nan nan nan nan nan nan nan nan nan nan nan nan nan nan nan nan nan nan nan nan nan nan nan nan nan nan 18 18 21 24 24 24 25 23 20 18 14 16 19 22 21 24 28 30 30 30 31 31 30 28 28 24 20 21 24 25 25 23 22 25 25 24 22 22 21 22 21 20 19 20 21 nan nan nan nan nan
nan nan nan nan nan nan nan nan nan nan nan nan nan nan nan nan nan nan nan nan nan nan nan nan nan nan nan nan nan nan nan nan nan nan nan 19 18 20 23 24 25 26 25 23 21 18 16 17 21 23 25 26 29 31 33 31 28 30 30 28 27 24 20 18 21 22 24 23 23 24 25 25 22 21 21 21 20 19 20 20 21 22 nan nan nan nan
nan nan nan nan nan nan nan nan nan nan nan nan nan nan nan nan nan nan nan nan nan nan nan nan nan nan nan nan nan nan nan nan nan nan nan 25 24 24 25 25 26 28 27 25 22 19 18 19 22 25 27 28 31 34 35 31 28 29 30 29 26 25 21 19 20 21 22 25 25 25 25 25 22 21 21 21 19 20 20 21 22 22 23 23 nan nan
nan nan nan nan nan nan nan nan nan nan nan nan nan nan nan nan nan nan nan nan nan nan nan nan nan nan nan 36 32 33 34 34 35 36 35 35 34 30 28 28 28 29 27 25 22 20 20 22 24 26 30 29 31 34 33 29 28 29 30 28 27 26 23 21 21 22 23 26 26 26 25 24 22 21 21 20 19 21 21 22 22 22 23 24 24 25
nan nan nan nan nan nan nan nan nan nan nan nan nan nan nan nan nan nan nan nan nan nan nan nan nan nan 36 34 nan 29 29 30 30 29 29 30 30 29 29 29 29 27 24 21 18 19 22 23 26 26 27 26 27 30 29 27 27 28 27 26 25 24 24 22 22 21 22 26 27 25 25 24 23 21 20 20 20 22 22 23 22 22 24 25 25 27
nan nan nan nan nan nan nan nan nan nan nan nan nan nan nan nan nan nan nan nan nan nan nan nan nan nan 31 28 29 26 nan 29 nan 32 32 30 28 27 28 27 26 23 20 19 19 21 20 21 24 22 20 20 22 24 24 23 24 25 25 25 24 24 24 23 22 21 24 26 26 25 25 24 22 22 21 22 22 23 23 23 22 24 24 25 27 27
nan nan nan nan nan nan nan nan nan nan nan nan nan nan nan nan nan nan nan nan nan nan nan nan nan nan nan nan nan nan 18 nan 27 29 30 30 29 29 28 26 23 22 21 18 20 22 21 18 18 17 17 18 19 21 22 23 24 24 24 24 22 22 23 23 22 22 24 25 25 25 25 23 22 22 22 22 22 22 23 23 23 24 25 26 27 27
nan nan nan nan nan nan nan nan nan nan nan nan nan nan nan nan nan nan nan nan nan nan nan nan nan nan nan nan nan nan 18 23 26 29 30 30 29 28 28 25 24 23 21 21 21 18 17 16 16 17 19 20 19 21 21 23 24 25 23 23 21 21 21 22 22 23 24 25 24 25 25 23 22 22 22 22 23 23 23 24 24 24 26 27 27 27
nan nan nan nan nan nan nan nan nan nan nan nan nan nan nan nan nan nan nan nan nan nan nan nan nan nan nan nan nan nan 28 26 29 30 30 30 29 27 26 23 23 21 19 20 19 16 16 17 18 18 20 21 23 23 24 23 24 25 23 22 20 20 20 23 21 22 25 24 24 24 24 24 23 22 22 23 23 23 23 24 24 25 26 26 27 26
nan nan nan nan nan nan nan nan nan nan nan nan nan nan nan nan nan nan nan nan nan nan nan nan nan nan nan nan nan 24 26 28 31 32 31 30 27 26 25 23 21 19 18 19 18 17 19 21 22 21 20 22 25 26 26 26 26 25 25 23 21 20 21 22 20 23 25 24 24 24 25 25 24 23 23 23 23 23 24 25 25 25 26 26 28 28
nan nan nan nan nan nan nan nan nan nan nan nan nan nan nan nan nan nan nan nan nan nan nan nan nan nan nan nan nan 25 26 28 30 29 29 28 27 25 23 21 19 18 18 18 18 18 23 24 24 23 23 25 26 27 27 26 26 27 26 24 23 23 22 22 22 23 26 26 26 26 27 27 26 25 24 24 23 24 25 26 26 26 27 28 29 30
nan nan nan nan nan nan nan nan nan nan nan nan nan nan nan nan nan nan nan nan nan nan nan nan nan nan nan nan nan 26 27 28 29 29 28 28 25 23 20 19 18 17 16 17 20 21 24 24 22 25 27 29 30 30 29 28 28 27 27 26 25 24 23 23 22 24 26 27 27 27 28 27 27 26 25 25 25 25 26 27 27 27 28 30 31 32
nan nan nan nan nan nan nan nan nan nan nan nan nan nan nan nan nan nan nan nan nan nan nan nan nan nan nan nan nan nan 30 30 30 30 29 27 26 23 22 19 16 14 15 18 21 22 21 22 24 27 28 28 29 28 28 28 28 27 28 29 27 26 25 24 23 24 27 28 28 28 28 28 28 27 26 26 27 27 27 28 28 29 30 31 32 33
nan nan nan nan nan nan nan nan nan nan nan nan nan nan nan nan nan nan nan nan nan nan nan nan nan nan nan nan nan nan nan 33 33 31 28 26 25 22 20 17 15 17 19 21 22 22 22 24 24 24 26 27 26 27 28 26 28 27 29 29 27 26 24 24 23 24 26 27 28 28 29 29 29 28 27 28 28 29 29 29 29 30 31 32 34 34
nan nan nan nan nan nan nan nan nan nan nan 31 nan nan nan nan nan nan nan nan nan nan nan nan nan nan nan nan nan nan 37 36 32 29 25 24 23 21 17 16 17 18 19 19 19 18 20 20 22 25 26 26 27 25 27 25 27 30 29 27 25 23 24 24 26 24 25 26 27 29 30 30 29 29 29 29 30 30 30 30 30 32 32 33 nan 35
nan nan nan nan nan nan nan nan nan nan 29 26 28 nan nan nan nan nan nan nan nan nan nan nan nan nan nan nan nan 37 37 35 32 29 26 23 21 19 16 16 16 16 16 17 15 15 18 21 24 25 25 25 27 27 25 25 27 28 27 24 23 23 23 24 25 26 27 27 28 29 29 29 30 30 30 nan 31 30 31 31 32 33 33 34 34 35
nan nan nan nan nan nan nan nan nan 25 21 22 21 nan nan nan nan nan nan nan nan nan nan nan nan nan nan nan 35 39 38 36 32 28 22 21 18 17 16 17 17 16 17 16 14 15 18 20 21 22 23 23 23 23 22 25 26 26 26 25 24 24 23 23 24 24 26 26 27 28 28 29 31 31 31 32 32 31 32 33 34 33 33 34 34 35
nan nan nan nan nan nan nan nan nan nan nan nan 28 24 nan 29 24 nan nan nan nan nan nan nan nan nan nan 24 30 33 33 32 30 28 22 18 17 17 19 20 19 18 17 14 15 16 17 18 18 19 18 20 18 17 20 22 23 24 24 24 25 24 24 24 24 25 27 27 28 29 29 29 30 31 31 31 32 32 33 34 34 34 34 35 36 36
nan nan nan nan nan nan nan nan nan nan nan 29 27 25 23 23 21 nan nan nan nan nan nan nan nan nan nan 21 26 27 25 25 28 31 30 20 18 18 18 17 18 20 18 16 16 16 15 14 17 20 18 20 17 17 19 19 20 20 20 21 22 22 23 23 25 26 27 28 29 29 29 29 30 31 31 31 31 33 35 35 35 35 36 36 36 37
nan nan nan nan nan nan nan nan nan nan nan 28 28 25 nan 19 18 nan nan nan 28 23 16 nan nan nan nan 19 25 25 23 26 24 27 32 24 20 20 18 17 19 19 17 17 17 15 15 16 19 18 19 20 20 21 21 21 19 18 19 20 21 21 21 22 23 24 26 28 29 29 29 30 32 32 32 33 33 35 36 36 37 37 37 nan 37 38
nan nan nan nan nan nan nan nan nan nan nan 26 27 26 nan 17 15 nan nan 21 25 23 21 17 16 15 13 16 22 27 25 31 32 30 28 26 26 26 22 21 20 19 19 18 17 18 18 18 20 21 22 21 24 24 24 23 22 21 21 23 23 23 23 23 24 27 28 30 30 31 32 33 34 35 35 35 36 37 nan nan 38 39 nan nan nan 40
nan nan nan nan nan nan nan nan nan nan nan 23 25 nan nan nan nan nan 24 19 21 24 24 22 21 18 16 14 21 29 34 32 33 31 27 25 29 27 21 22 22 21 21 20 19 17 21 22 22 23 25 25 26 26 26 26 25 24 24 23 23 24 26 29 30 30 32 nan nan nan nan nan nan 39 39 38 39 39 39 39 nan nan nan nan 41 42
nan nan nan nan nan nan nan nan nan nan 19 21 22 20 nan 22 24 21 21 22 24 27 30 28 26 25 20 17 20 29 34 32 33 32 28 27 28 25 21 22 23 23 23 20 20 19 23 25 25 27 27 26 27 27 27 28 28 27 27 26 26 27 28 33 36 36 36 37 38 39 40 nan 42 41 40 40 41 42 41 41 41 nan nan nan 42 nan
nan nan nan nan nan nan nan nan nan nan 20 21 23 22 23 25 24 23 21 23 26 28 32 33 34 31 25 21 20 25 31 32 34 33 31 28 27 27 27 26 24 23 22 21 21 24 25 27 28 30 29 27 27 27 28 29 29 30 30 30 32 33 34 38 40 40 41 42 42 43 nan nan 44 43 42 42 nan 41 42 nan nan nan nan nan nan nan
nan nan 19 15 nan nan nan nan 22 21 18 19 20 19 20 22 22 22 21 22 26 27 29 32 37 35 29 26 23 21 24 28 33 34 34 32 28 30 32 29 25 23 21 23 25 30 29 29 29 30 30 29 30 30 31 31 33 35 33 33 36 38 39 43 44 43 43 44 45 45 nan 44 43 43 43 nan nan nan nan nan nan nan nan nan nan nan
nan nan 14 7 nan 17 16 nan 21 18 17 16 16 14 14 14 17 18 21 22 25 26 28 31 35 37 33 30 27 23 20 20 22 25 30 31 30 30 32 30 27 23 20 21 25 29 28 31 30 30 31 32 31 32 33 34 36 37 36 39 40 40 41 45 44 44 44 46 46 nan nan nan nan nan nan nan nan nan nan nan nan nan nan nan nan nan
12 9 nan nan 9 nan 15 18 15 15 17 16 15 14 13 15 18 17 16 20 22 25 26 28 32 36 36 33 31 29 25 23 21 22 25 28 29 31 31 31 30 26 20 18 21 26 26 30 30 31 33 34 35 34 35 36 37 38 40 41 42 43 44 44 44 44 44 45 45 45 42 42 nan nan 39 nan nan nan nan nan nan nan nan nan nan nan
15 12 7 4 3 4 12 16 17 18 18 17 15 15 16 17 16 14 11 17 22 25 26 26 27 33 34 37 36 32 29 27 25 24 24 26 28 28 26 26 26 25 22 20 23 27 25 30 31 33 34 34 36 36 37 38 38 40 41 41 42 44 44 43 41 42 41 42 nan 38 37 36 38 38 36 nan nan nan nan nan nan nan nan nan nan nan
18 14 11 9 3 3 6 7 11 13 14 17 17 18 19 19 16 15 12 19 24 26 26 28 31 32 35 36 36 35 32 30 29 27 26 28 28 27 26 27 27 26 26 25 29 28 28 30 31 34 34 35 37 38 38 40 40 40 41 41 41 41 42 41 42 40 40 39 37 nan 34 34 35 33 nan nan nan nan nan nan nan nan nan nan 36 nan
15 13 14 12 10 7 5 7 7 8 11 13 21 23 22 19 17 19 17 23 27 27 25 25 28 32 35 36 37 37 36 34 32 30 29 29 29 31 32 31 31 31 31 30 33 31 31 32 32 36 35 36 38 40 40 41 39 38 39 39 39 39 39 40 40 39 39 37 nan nan nan nan 34 33 34 34 nan nan nan nan nan nan nan nan nan nan
18 18 17 nan 13 12 14 11 8 12 15 17 21 23 23 22 22 24 25 26 26 26 27 27 28 31 36 38 38 38 38 37 36 35 35 34 34 34 35 35 34 34 34 35 35 33 34 37 35 38 37 38 40 41 41 39 37 37 37 38 38 38 38 39 39 37 37 nan nan nan nan nan nan nan nan nan nan nan nan nan nan nan nan nan nan nan
Wind_Direction
nan nan nan nan nan nan nan nan nan nan nan nan nan nan nan nan nan nan nan nan nan nan nan nan nan nan nan nan 259 260 259 255 255 255 254 255 256 258 261 264 266 268 269 268 271 275 277 276 278 281 275 268 267 265 266 264 264 263 264 268 273 272 274 279 277 271 269 268 270 266 260 263 270 272 273 272 273 267 262 269 269 265 263 266 266 265
nan nan nan nan nan nan nan nan nan nan nan nan nan nan nan nan nan nan nan nan nan nan nan nan nan nan nan nan nan 258 259 259 258 257 257 256 256 254 257 260 262 262 262 263 269 268 267 272 277 278 270 264 260 256 260 258 259 261 266 273 274 276 280 282 271 263 264 267 267 263 259 262 272 276 277 271 265 262 264 261 263 261 266 268 267 268
nan nan nan nan nan nan nan nan nan nan nan nan nan nan nan nan nan nan nan nan nan nan nan nan nan nan nan nan nan 258 260 256 256 255 252 250 250 248 248 252 255 260 264 264 264 264 265 271 279 271 257 251 250 250 253 253 259 268 276 277 279 281 276 260 260 264 265 267 269 266 259 265 271 267 270 275 272 268 266 264 266 265 266 268 269 269
nan nan nan nan nan nan nan nan nan nan nan nan nan nan nan nan nan nan nan nan nan nan nan nan nan nan nan nan nan 249 251 249 249 248 243 241 243 245 245 246 249 257 261 263 263 264 266 268 266 258 244 241 239 246 248 252 258 267 268 274 274 270 270 261 263 265 270 268 266 262 260 260 270 275 275 270 267 271 270 265 262 262 263 265 268 269
nan nan nan nan nan nan nan nan nan nan nan nan nan nan nan nan nan nan nan nan nan nan nan nan nan nan nan nan nan 244 244 244 246 246 243 241 236 236 238 241 246 253 257 256 261 261 263 268 265 246 237 236 239 244 250 253 267 263 274 277 278 276 271 267 271 279 271 267 265 264 263 266 268 270 272 270 268 269 267 263 259 261 264 nan nan 267
nan nan nan nan nan nan nan nan nan nan nan nan nan nan nan nan nan nan nan nan nan nan nan nan nan nan nan nan nan 244 244 243 246 247 248 246 241 238 240 245 247 246 247 250 255 258 255 256 252 242 238 240 243 252 258 255 264 268 272 279 271 271 267 270 278 277 270 271 272 276 274 271 270 274 277 281 279 276 265 257 nan nan nan 265 263 263
nan nan nan nan nan nan nan nan nan nan nan nan nan nan nan nan nan nan nan nan nan nan nan nan nan nan nan nan nan nan 246 246 245 245 245 246 241 241 240 244 247 249 251 244 235 242 250 246 237 239 240 247 253 258 262 259 273 279 280 279 272 268 266 274 279 281 275 276 276 280 274 274 276 278 nan 266 270 268 260 nan nan nan nan 264 260 nan
nan nan nan nan nan nan nan nan nan nan nan nan nan nan nan nan nan nan nan nan nan nan nan nan nan nan nan nan nan nan 248 245 245 244 242 242 242 242 242 242 247 250 259 252 242 233 237 234 225 230 240 249 257 267 271 276 284 276 277 277 277 281 273 273 281 285 283 278 274 271 270 270 273 279 279 275 267 263 nan nan nan nan 270 263 nan nan
nan nan nan nan nan nan nan nan nan nan nan nan nan nan nan nan nan nan nan nan nan nan nan nan nan nan nan nan nan nan 245 242 242 245 244 242 242 244 247 244 248 252 256 257 248 248 246 241 232 234 245 251 262 266 269 278 276 275 285 286 287 276 278 276 288 288 283 276 275 271 272 276 273 277 276 274 269 nan nan nan nan 271 nan nan nan nan
nan nan nan nan nan nan nan nan nan nan nan nan nan nan nan nan nan nan nan nan nan nan nan nan nan nan nan nan nan nan nan nan nan 245 244 244 249 249 243 244 249 251 253 260 257 240 237 241 246 253 256 264 264 263 268 271 273 280 286 290 291 286 280 280 289 287 283 278 276 277 280 283 281 279 277 275 274 nan nan 280 280 279 nan nan nan nan
nan nan nan nan nan nan nan nan nan nan nan nan nan nan nan nan nan nan nan nan nan nan nan nan nan nan nan nan nan 239 nan nan nan 238 240 241 242 237 235 245 249 256 259 256 256 243 239 243 252 262 268 267 264 261 267 266 270 277 285 289 290 286 279 284 282 281 281 281 280 282 289 293 290 285 284 279 279 281 282 283 284 nan nan nan nan nan
nan nan nan nan nan nan nan nan nan nan nan nan nan nan nan nan nan nan nan nan nan nan nan nan nan nan nan nan nan nan 234 nan nan 247 251 246 246 244 244 248 256 261 256 254 252 243 239 251 265 268 269 269 268 267 266 264 263 268 274 281 285 283 282 280 275 279 280 277 279 283 289 293 293 289 285 292 292 295 nan nan nan nan nan nan 267 nan
nan nan nan nan nan nan nan nan nan nan nan nan nan nan nan nan nan nan nan nan nan nan nan nan nan nan nan nan nan nan nan nan nan 235 243 244 241 244 247 253 255 257 255 248 247 244 239 248 265 268 268 264 269 269 272 267 267 270 272 279 279 276 279 280 280 283 283 281 284 287 290 293 287 286 289 292 nan nan nan nan nan nan 268 267 271 272
nan nan nan nan nan nan nan nan nan nan nan nan nan nan nan nan nan nan nan nan nan nan nan nan nan nan nan nan nan nan 235 nan nan nan nan nan 228 232 237 244 246 245 245 243 244 245 241 244 256 267 271 271 271 275 274 270 269 269 271 277 278 281 279 283 286 292 291 289 286 284 286 287 289 284 283 276 278 280 nan nan nan 271 270 270 270 271
nan nan nan nan nan nan nan nan nan nan nan nan nan nan nan nan nan nan nan nan nan nan nan nan nan nan nan nan nan nan 232 nan nan nan nan nan nan 221 226 234 238 237 237 241 246 248 247 251 261 267 275 273 274 277 277 276 276 272 276 280 283 282 286 291 286 279 285 284 286 287 282 279 279 273 271 269 272 nan nan nan nan 268 269 267 266 nan
nan nan nan nan nan nan nan nan nan nan nan nan nan nan nan nan nan nan nan nan nan nan nan nan nan nan nan nan nan nan nan nan nan nan nan 226 222 223 227 234 237 239 243 251 260 260 258 259 269 272 277 278 280 281 278 279 275 274 281 282 287 289 290 286 281 282 286 284 286 288 284 284 282 274 269 266 268 nan nan nan nan 269 265 261 260 nan
nan nan nan nan nan nan nan nan nan nan nan nan nan nan nan nan nan nan nan nan nan nan nan nan nan nan nan nan nan nan nan nan nan 231 229 228 228 228 229 235 241 245 252 260 265 262 270 273 284 284 283 284 284 281 279 279 277 278 279 286 286 284 280 288 283 281 280 285 289 288 286 287 284 280 276 270 nan nan 272 273 269 264 260 nan nan nan
nan nan nan nan nan nan nan nan nan nan nan nan nan nan nan nan nan nan nan nan nan nan nan nan nan nan nan nan nan nan nan nan nan nan nan 227 228 230 229 232 238 245 252 260 261 264 275 291 293 285 278 290 287 283 278 279 278 271 279 284 286 277 280 280 280 279 283 288 290 289 283 284 283 276 272 nan 274 274 276 275 267 261 nan nan nan nan
nan nan nan nan nan nan nan nan nan nan nan nan nan nan nan nan nan nan nan nan nan nan nan nan nan nan nan nan nan nan nan nan nan nan nan 229 226 224 225 230 235 243 246 250 255 261 273 286 286 280 285 287 285 283 280 278 278 275 276 279 284 285 288 285 282 281 281 285 283 286 281 282 278 271 268 nan 275 277 277 275 267 nan nan nan nan nan
nan nan nan nan nan nan nan nan nan nan nan nan nan nan nan nan nan nan nan nan nan nan nan nan nan nan nan nan nan nan nan nan nan nan nan nan 227 223 222 228 237 244 247 252 257 265 274 281 284 281 278 283 285 284 280 280 275 277 279 282 284 286 288 289 285 278 281 281 282 281 276 273 274 272 268 271 277 277 276 272 267 nan nan nan nan nan
nan nan nan nan nan nan nan nan nan nan nan nan nan nan nan nan nan nan nan nan nan nan nan nan nan nan nan nan nan nan nan nan nan nan nan nan 223 224 225 229 235 242 246 252 256 261 272 275 275 279 277 277 279 278 275 277 278 279 279 284 283 288 292 290 286 283 282 281 277 277 279 278 275 271 265 269 272 273 272 268 267 nan nan nan nan nan
nan nan nan nan nan nan nan nan nan nan nan nan nan nan nan nan nan nan nan nan nan nan nan nan nan nan nan nan nan nan nan nan nan nan nan 218 217 220 222 227 231 233 242 249 252 257 263 271 272 276 271 272 274 275 277 277 276 281 283 286 288 290 291 287 281 282 283 282 275 274 277 284 278 270 266 269 271 272 271 270 268 270 nan nan nan nan
nan nan nan nan nan nan nan nan nan nan nan nan nan nan nan nan nan nan nan nan nan nan nan nan nan nan nan nan nan nan nan nan nan nan nan 212 211 219 222 222 224 232 240 244 247 251 258 265 271 274 275 266 271 271 274 278 282 283 285 287 290 293 290 283 279 278 274 270 272 274 278 282 279 271 272 273 273 276 274 271 269 271 273 273 nan nan
nan nan nan nan nan nan nan nan nan nan nan nan nan nan nan nan nan nan nan nan nan nan nan nan nan nan nan 225 222 224 227 225 223 218 220 220 218 221 221 221 226 231 235 239 239 244 252 262 270 274 273 266 266 273 278 280 283 282 286 290 292 294 290 282 278 277 268 266 265 275 281 282 276 273 273 275 273 278 275 271 269 271 273 274 275 279
nan nan nan nan nan nan nan nan nan nan nan nan nan nan nan nan nan nan nan nan nan nan nan nan nan nan 230 235 nan 225 226 224 218 218 213 213 217 218 219 220 223 229 231 235 241 248 256 269 279 281 281 272 272 280 281 283 285 287 288 289 290 289 286 280 278 279 274 269 271 278 281 280 277 275 275 274 273 277 273 271 269 270 274 276 279 281
nan nan nan nan nan nan nan nan nan nan nan nan nan nan nan nan nan nan nan nan nan nan nan nan nan nan 232 242 248 240 nan 225 nan 217 213 205 209 216 220 222 224 223 221 228 237 246 262 275 275 273 273 271 275 279 283 285 284 287 290 292 290 287 282 279 280 282 273 272 278 283 285 282 280 278 276 274 274 276 273 271 271 274 275 280 282 282
nan nan nan nan nan nan nan nan nan nan nan nan nan nan nan nan nan nan nan nan nan nan nan nan nan nan nan nan nan nan 229 nan 225 219 214 209 207 209 216 220 216 213 215 225 236 244 259 267 271 272 274 273 279 281 281 283 285 287 290 293 293 287 280 280 282 281 273 279 284 287 286 285 283 277 274 272 272 272 272 272 274 278 281 283 283 283
nan nan nan nan nan nan nan nan nan nan nan nan nan nan nan nan nan nan nan nan nan nan nan nan nan nan nan nan nan nan 226 218 218 215 211 210 208 212 214 210 208 207 214 226 239 256 268 262 253 270 279 279 280 280 282 284 284 284 289 294 293 291 282 270 276 275 273 278 282 284 286 285 282 276 271 270 272 273 273 273 276 280 281 283 284 286
nan nan nan nan nan nan nan nan nan nan nan nan nan nan nan nan nan nan nan nan nan nan nan nan nan nan nan nan nan nan 211 204 204 207 208 209 211 214 216 208 202 206 220 235 246 253 255 256 261 278 284 281 281 285 284 285 285 282 284 289 292 290 284 275 284 279 277 279 280 282 284 282 279 274 272 272 274 275 275 277 279 281 282 284 285 286
nan nan nan nan nan nan nan nan nan nan nan nan nan nan nan nan nan nan nan nan nan nan nan nan nan nan nan nan nan 190 204 196 198 203 206 208 209 212 212 208 204 209 225 237 246 249 248 251 260 273 285 291 291 289 285 283 283 283 284 286 289 288 277 275 282 272 275 279 277 278 281 280 277 277 275 275 277 278 279 280 282 284 286 288 288 289
nan nan nan nan nan nan nan nan nan nan nan nan nan nan nan nan nan nan nan nan nan nan nan nan nan nan nan nan nan 190 187 189 189 195 199 202 207 210 211 209 209 214 224 233 241 248 248 252 262 275 287 293 291 290 283 280 282 281 282 285 284 279 277 273 272 270 274 275 274 276 277 276 276 277 279 278 277 277 281 283 283 286 289 290 290 291
nan nan nan nan nan nan nan nan nan nan nan nan nan nan nan nan nan nan nan nan nan nan nan nan nan nan nan nan nan 176 185 179 181 188 194 200 203 208 206 212 215 220 229 238 244 246 253 261 272 284 292 287 286 289 285 282 280 280 284 279 280 279 279 277 275 273 272 273 274 275 276 275 279 280 280 281 280 281 282 282 285 288 290 290 292 291
nan nan nan nan nan nan nan nan nan nan nan nan nan nan nan nan nan nan nan nan nan nan nan nan nan nan nan nan nan nan 180 180 180 185 190 195 198 201 202 209 218 224 231 240 248 253 261 273 279 281 285 283 286 287 286 283 281 279 276 274 275 273 279 281 281 276 272 272 276 277 276 277 279 282 282 283 283 282 281 284 287 289 290 291 290 290
nan nan nan nan nan nan nan nan nan nan nan nan nan nan nan nan nan nan nan nan nan nan nan nan nan nan nan nan nan nan nan 183 184 187 188 189 196 200 203 205 210 220 227 235 246 256 262 259 267 277 282 282 286 286 282 284 279 279 273 275 277 283 284 285 282 278 274 275 277 277 275 276 279 281 282 283 283 283 284 287 288 287 286 286 286 288
nan nan nan nan nan nan nan nan nan nan nan 208 nan nan nan nan nan nan nan nan nan nan nan nan nan nan nan nan nan nan 185 193 191 188 187 189 195 201 204 206 212 220 229 240 250 259 267 275 274 280 281 283 282 284 283 283 276 271 272 277 281 281 280 278 278 275 274 275 276 275 276 278 280 282 282 283 283 284 286 287 286 287 285 285 nan 288
nan nan nan nan nan nan nan nan nan nan 211 208 207 nan nan nan nan nan nan nan nan nan nan nan nan nan nan nan nan 181 186 190 187 187 188 193 200 201 200 201 215 223 232 240 257 263 272 280 283 288 292 284 280 283 285 284 277 276 274 275 276 273 273 275 273 269 268 270 272 275 276 280 280 281 280 nan 283 286 288 288 287 287 285 286 287 288
nan nan nan nan nan nan nan nan nan 206 206 210 211 nan nan nan nan nan nan nan nan nan nan nan nan nan nan nan 188 191 191 187 184 188 194 196 199 199 201 209 222 231 236 245 261 272 277 279 288 292 289 287 290 289 286 277 277 275 273 271 270 275 278 278 278 278 274 273 275 275 277 279 280 280 281 282 284 286 287 288 288 287 285 287 288 290
nan nan nan nan nan nan nan nan nan nan nan nan 207 212 nan 206 208 nan nan nan nan nan nan nan nan nan nan 187 194 195 193 186 181 189 214 210 211 215 220 221 228 239 248 257 267 276 284 284 278 282 288 295 296 292 278 275 275 274 273 274 275 277 279 283 283 280 280 277 274 274 276 278 281 282 283 284 287 288 285 284 284 285 285 289 289 291
nan nan nan nan nan nan nan nan nan nan nan 200 206 209 210 207 211 nan nan nan nan nan nan nan nan nan nan 187 194 196 186 179 186 193 203 206 211 221 223 221 231 243 252 262 274 280 283 275 279 286 295 297 301 294 286 285 285 282 283 283 283 282 279 279 276 275 277 276 274 273 277 281 283 285 286 288 291 288 287 287 286 285 285 286 288 291
nan nan nan nan nan nan nan nan nan nan nan 197 196 201 nan 209 220 nan nan nan 231 223 215 nan nan nan nan 193 195 187 181 189 195 203 195 193 212 223 220 228 239 247 255 263 266 264 267 268 275 291 302 307 304 294 292 293 291 289 285 284 282 283 283 283 283 285 281 280 280 281 280 280 283 284 287 291 291 290 290 288 286 287 288 nan 291 293
nan nan nan nan nan nan nan nan nan nan nan 199 197 198 nan 211 216 nan nan 220 212 213 210 196 181 191 204 199 190 182 188 200 206 201 196 202 223 222 219 222 232 240 249 258 260 262 261 272 286 297 303 299 293 289 290 290 289 286 282 281 280 281 280 281 281 282 282 282 283 283 282 278 280 284 286 289 290 289 nan nan 288 288 nan nan nan 293
nan nan nan nan nan nan nan nan nan nan nan 193 203 nan nan nan nan nan 211 201 198 201 203 196 189 194 201 192 187 184 198 207 210 210 208 218 227 236 221 219 229 239 245 252 258 265 268 276 287 292 296 295 290 286 284 286 286 285 283 283 286 286 274 274 276 277 278 nan nan nan nan nan nan 280 284 287 288 288 288 287 nan nan nan nan 293 294
nan nan nan nan nan nan nan nan nan nan 207 202 198 209 nan 199 212 205 187 206 202 200 198 200 195 194 198 197 188 193 202 204 209 217 228 234 234 238 233 225 232 243 251 261 272 274 274 281 287 292 294 292 289 285 283 284 284 281 280 281 282 279 283 274 272 274 277 279 282 286 286 nan 285 284 285 288 290 291 290 289 289 nan nan nan 294 nan
nan nan nan nan nan nan nan nan nan nan 198 208 201 206 208 205 200 198 193 204 204 203 202 201 205 199 200 199 201 205 207 208 212 220 233 242 238 237 233 232 236 240 243 254 267 273 278 278 281 284 290 289 290 287 286 287 283 280 279 284 280 281 280 277 275 275 278 281 284 286 nan nan 287 288 287 289 nan 292 292 nan nan nan nan nan nan nan
nan nan 200 207 nan nan nan nan 215 201 196 202 208 201 200 203 202 203 199 206 207 207 201 206 206 207 207 207 205 206 209 209 214 221 230 239 244 248 242 233 230 229 232 248 266 272 274 276 282 285 289 288 294 289 289 290 288 285 287 283 281 283 285 282 282 284 286 286 287 287 nan 286 288 290 288 nan nan nan nan nan nan nan nan nan nan nan
nan nan 185 188 nan 212 205 nan 203 199 207 210 212 203 198 214 221 207 205 216 216 213 209 208 206 209 209 207 207 208 201 208 207 217 228 237 242 250 260 262 255 241 236 250 268 278 276 275 280 286 290 291 293 292 288 290 289 291 289 283 285 289 289 286 287 288 288 286 284 nan nan nan nan nan nan nan nan nan nan nan nan nan nan nan nan nan
214 197 nan nan 210 nan 219 227 216 218 227 224 220 219 212 215 217 209 208 223 227 222 219 215 211 210 210 208 206 206 209 208 211 220 230 240 247 251 254 261 266 269 273 275 278 280 278 278 281 286 289 290 290 289 289 289 288 290 289 288 289 289 288 288 289 287 285 284 282 281 282 285 nan nan 285 nan nan nan nan nan nan nan nan nan nan nan
232 223 189 171 196 163 202 220 228 228 227 231 228 233 228 221 220 212 214 241 240 232 221 217 217 215 211 214 212 213 217 214 214 220 230 241 248 252 256 261 271 276 279 278 277 278 276 277 281 284 286 286 288 287 287 288 290 291 289 289 289 287 286 285 286 286 287 287 nan 284 286 286 287 288 287 nan nan nan nan nan nan nan nan nan nan nan
215 215 224 245 259 207 186 202 224 233 237 246 240 231 227 225 221 223 228 248 245 238 230 224 220 218 216 215 214 219 222 221 220 220 225 235 241 244 249 258 265 268 271 272 270 274 273 274 278 281 285 286 286 286 288 290 291 292 290 289 288 288 287 285 286 287 290 290 288 nan 285 285 287 288 nan nan nan nan nan nan nan nan nan nan 292 nan
219 216 218 236 241 240 203 227 258 233 231 243 240 236 239 240 234 231 236 240 237 232 228 229 230 225 219 215 215 220 223 225 226 225 230 232 235 238 243 250 258 262 264 266 266 272 271 271 273 278 284 285 285 287 290 291 291 290 289 289 289 289 289 288 287 289 290 289 nan nan nan nan 288 288 288 289 nan nan nan nan nan nan nan nan nan nan
212 215 212 nan 233 242 239 224 230 211 231 227 236 238 237 230 232 236 234 235 234 228 226 226 229 230 225 219 215 220 224 225 226 228 233 235 235 237 241 247 252 256 259 261 265 273 275 275 277 279 285 286 287 290 292 289 289 288 289 289 290 291 290 289 286 286 287 nan nan nan nan nan nan nan nan nan nan nan nan nan nan nan nan nan nan nan